FW0180 Weather Reports


time (UTC)temp
C
wind
direction
speed
KPH
gust
KPH
rain 1hr
cm
rain 24hr
cm
rain mn
cm
humidity
%
barometer
mb
20260507155930 28 232 0.0 4.8 0.00 0.00 0.00 13 1009.9
20260507155432 28 232 1.6 6.4 0.00 0.00 0.00 14 1009.9
20260507154929 28 232 1.6 6.4 0.00 0.00 0.00 14 1010.0
20260507154659 27 232 0.0 6.4 0.00 0.00 0.00 17 1010.0
20260507153929 26 325 0.0 3.2 0.00 0.00 0.00 20 1010.0
20260507153434 26 325 0.0 4.8 0.00 0.00 0.00 24 1010.0
20260507152929 25 326 0.0 4.8 0.00 0.00 0.00 25 1010.0
20260507152431 25 327 0.0 4.8 0.00 0.00 0.00 27 1010.0
20260507151929 24 63 0.0 3.2 0.00 0.00 0.00 28 1010.1
20260507151430 23 63 0.0 0.0 0.00 0.00 0.00 31 1010.0
20260507150938 23 63 0.0 1.6 0.00 0.00 0.00 31 1010.0
20260507150435 22 63 0.0 1.6 0.00 0.00 0.00 34 1010.1
20260507145929 22 57 0.0 0.0 0.00 0.00 0.00 36 1010.1
20260507145429 21 57 0.0 0.0 0.00 0.00 0.00 37 1010.1
20260507144931 21 86 0.0 0.0 0.00 0.00 0.00 38 1010.1
20260507144431 20 86 0.0 0.0 0.00 0.00 0.00 39 1010.2
20260507144203 20 86 0.0 3.2 0.00 0.00 0.00 39 1010.2
20260507143429 19 86 0.0 3.2 0.00 0.00 0.00 40 1010.2
20260507143157 19 134 0.0 6.4 0.00 0.00 0.00 41 1010.2
20260507142430 18 134 0.0 6.4 0.00 0.00 0.00 42 1010.2
20260507141933 18 134 0.0 6.4 0.00 0.00 0.00 43 1010.1
20260507141704 18 141 0.0 6.4 0.00 0.00 0.00 44 1010.1
20260507140932 17 94 0.0 0.0 0.00 0.00 0.00 44 1010.2
20260507140433 17 94 0.0 1.6 0.00 0.00 0.00 45 1010.1
20260507135929 17 94 0.0 1.6 0.00 0.00 0.00 45 1010.1
20260507135701 17 95 0.0 0.0 0.00 0.00 0.00 45 1010.1
20260507134937 16 95 0.0 1.6 0.00 0.00 0.00 46 1010.0
20260507134931 16 95 0.0 0.0 0.00 0.00 0.00 46 1010.1
20260507134208 16 95 0.0 1.6 0.00 0.00 0.00 46 1010.1
20260507133431 16 95 0.0 0.0 0.00 0.00 0.00 46 1009.9
20260507132929 16 95 0.0 0.0 0.00 0.00 0.00 46 1009.9
20260507132429 16 95 0.0 0.0 0.00 0.00 0.00 45 1009.9
20260507131933 16 95 0.0 1.6 0.00 0.00 0.00 44 1009.9
20260507131702 16 95 0.0 1.6 0.00 0.00 0.00 44 1009.9
20260507130931 16 99 0.0 0.0 0.00 0.00 0.00 43 1009.9
20260507130429 16 99 0.0 0.0 0.00 0.00 0.00 43 1009.8
20260507125929 16 188 0.0 1.6 0.00 0.00 0.00 43 1009.8
20260507125429 15 188 0.0 1.6 0.00 0.00 0.00 43 1009.8
20260507124935 15 192 0.0 0.0 0.00 0.00 0.00 42 1009.8
20260507124656 15 192 0.0 3.2 0.00 0.00 0.00 43 1009.7
20260507124426 15 192 0.0 3.2 0.00 0.00 0.00 43 1009.6
20260507123430 15 192 0.0 1.6 0.00 0.00 0.00 43 1009.7
20260507122931 15 192 0.0 0.0 0.00 0.00 0.00 43 1009.6
20260507122429 15 192 0.0 0.0 0.00 0.00 0.00 44 1009.6
20260507121935 15 192 0.0 0.0 0.00 0.00 0.00 44 1009.5
20260507121430 15 192 0.0 8.0 0.00 0.00 0.00 43 1009.6
20260507120929 15 192 0.0 8.0 0.00 0.00 0.00 44 1009.5
20260507120649 15 42 0.0 6.4 0.00 0.00 0.00 43 1009.5
20260507120432 15 42 0.0 6.4 0.00 0.00 0.00 43 1009.5
20260507115923 15 42 0.0 6.4 0.00 0.00 0.00 44 1009.5
20260507115422 15 269 0.0 0.0 0.00 0.00 0.00 44 1009.5
20260507114911 16 269 0.0 0.0 0.00 0.00 0.00 44 1009.6
20260507114630 16 269 0.0 0.0 0.00 0.00 0.00 44 1009.7
20260507113907 16 269 0.0 0.0 0.00 0.00 0.00 43 1009.6
20260507113406 16 269 0.0 0.0 0.00 0.00 0.00 44 1009.6
20260507112904 16 269 0.0 0.0 0.00 0.00 0.00 44 1009.7
20260507112405 16 269 0.0 0.0 0.00 0.00 0.00 43 1009.7
20260507111905 16 269 0.0 0.0 0.00 0.00 0.00 43 1009.8
20260507111406 16 269 0.0 0.0 0.00 0.00 0.00 43 1009.8
20260507110901 16 269 0.0 0.0 0.00 0.00 0.00 43 1009.7
20260507110402 16 269 0.0 0.0 0.00 0.00 0.00 43 1009.8
20260507105901 16 269 0.0 0.0 0.00 0.00 0.00 43 1009.9
20260507105409 16 269 0.0 0.0 0.00 0.00 0.00 44 1009.9
20260507104903 16 269 0.0 0.0 0.00 0.00 0.00 43 1009.9
20260507104403 16 269 0.0 0.0 0.00 0.00 0.00 43 1010.0
20260507103902 16 269 0.0 0.0 0.00 0.00 0.00 42 1010.0
20260507103412 16 269 0.0 0.0 0.00 0.00 0.00 42 1010.1
20260507102907 16 269 0.0 0.0 0.00 0.00 0.00 42 1010.2
20260507102405 16 269 0.0 0.0 0.00 0.00 0.00 41 1010.1
20260507101902 17 269 0.0 0.0 0.00 0.00 0.00 41 1010.1
20260507101403 17 269 0.0 0.0 0.00 0.00 0.00 41 1010.2
20260507100901 17 269 0.0 0.0 0.00 0.00 0.00 40 1010.2
20260507100408 17 269 0.0 0.0 0.00 0.00 0.00 39 1010.2
20260507095903 17 269 0.0 0.0 0.00 0.00 0.00 39 1010.3
20260507095406 17 269 0.0 0.0 0.00 0.00 0.00 39 1010.2
20260507094901 17 269 0.0 0.0 0.00 0.00 0.00 38 1010.2
20260507094404 17 269 0.0 0.0 0.00 0.00 0.00 38 1010.3
20260507093901 17 269 0.0 0.0 0.00 0.00 0.00 37 1010.4
20260507093406 17 269 0.0 0.0 0.00 0.00 0.00 37 1010.4
20260507093357 17 269 0.0 0.0 0.00 0.00 0.00 37 1010.4
20260507092404 17 269 0.0 0.0 0.00 0.00 0.00 37 1010.4
20260507091902 18 269 0.0 0.0 0.00 0.00 0.00 36 1010.4
20260507091636 18 269 0.0 0.0 0.00 0.00 0.00 36 1010.4
20260507090902 18 269 0.0 0.0 0.00 0.00 0.00 36 1010.4
20260507090402 18 269 0.0 0.0 0.00 0.00 0.00 36 1010.4
20260507085904 18 269 0.0 0.0 0.00 0.00 0.00 36 1010.5
20260507085402 18 269 0.0 0.0 0.00 0.00 0.00 36 1010.5
20260507084902 18 269 0.0 0.0 0.00 0.00 0.00 36 1010.5
20260507084406 18 269 0.0 0.0 0.00 0.00 0.00 36 1010.6
20260507083903 18 269 0.0 0.0 0.00 0.00 0.00 36 1010.6
20260507083403 18 269 0.0 0.0 0.00 0.00 0.00 36 1010.7
20260507082901 18 269 0.0 0.0 0.00 0.00 0.00 36 1010.7
20260507082409 19 269 0.0 0.0 0.00 0.00 0.00 34 1010.8
20260507081901 19 269 0.0 0.0 0.00 0.00 0.00 34 1010.8
20260507081402 19 269 0.0 0.0 0.00 0.00 0.00 34 1010.8
20260507081129 19 269 0.0 0.0 0.00 0.00 0.00 33 1010.8
20260507080409 19 269 0.0 0.0 0.00 0.00 0.00 33 1010.8
20260507075906 20 269 0.0 0.0 0.00 0.00 0.00 33 1010.8
20260507075404 20 269 0.0 0.0 0.00 0.00 0.00 32 1010.8
20260507074836 20 269 0.0 0.0 0.00 0.00 0.00 31 1010.8
20260507074330 20 269 0.0 0.0 0.00 0.00 0.00 32 1010.8
20260507074042 20 269 0.0 0.0 0.00 0.00 0.00 32 1010.8
20260507073538 20 269 0.0 0.0 0.00 0.00 0.00 30 1010.9
20260507073035 20 269 0.0 0.0 0.00 0.00 0.00 30 1010.8
20260507072308 20 269 0.0 1.6 0.00 0.00 0.00 30 1010.8
20260507071803 20 269 0.0 1.6 0.00 0.00 0.00 29 1010.7
20260507071301 20 269 0.0 3.2 0.00 0.00 0.00 30 1010.8
20260507070807 20 269 0.0 3.2 0.00 0.00 0.00 30 1010.8
20260507070306 20 269 0.0 0.0 0.00 0.00 0.00 30 1010.8
20260507070028 20 269 0.0 1.6 0.00 0.00 0.00 30 1010.9
20260507065301 20 269 0.0 3.2 0.00 0.00 0.00 30 1010.9
20260507064806 20 269 0.0 3.2 0.00 0.00 0.00 30 1010.8
20260507064302 20 269 0.0 1.6 0.00 0.00 0.00 30 1010.7
20260507063801 20 269 0.0 1.6 0.00 0.00 0.00 30 1010.7
20260507063305 20 269 0.0 1.6 0.00 0.00 0.00 31 1010.7
20260507062808 20 269 0.0 3.2 0.00 0.00 0.00 30 1010.7
20260507062306 20 269 0.0 3.2 0.00 0.00 0.00 30 1010.6
20260507061809 20 269 0.0 3.2 0.00 0.00 0.00 30 1010.7
20260507061308 20 269 0.0 1.6 0.00 0.00 0.00 31 1010.7
20260507060805 20 268 0.0 1.6 0.00 0.00 0.00 31 1010.6
20260507060305 20 268 0.0 1.6 0.00 0.00 0.00 32 1010.7
20260507055801 20 268 0.0 1.6 0.00 0.00 0.00 31 1010.6
20260507055752 20 268 0.0 1.6 0.00 0.00 0.00 31 1010.7
20260507055034 20 268 0.0 1.6 0.00 0.00 0.00 30 1010.7
20260507054308 21 268 0.0 0.0 0.00 0.00 0.00 31 1010.7
20260507053805 21 268 0.0 0.0 0.00 0.00 0.00 31 1010.6
20260507053306 21 268 0.0 0.0 0.00 0.00 0.00 31 1010.7
20260507052802 21 268 0.0 0.0 0.00 0.00 0.00 31 1010.7
20260507052758 21 268 0.0 0.0 0.00 0.00 0.00 30 1010.7
20260507051800 21 268 0.0 0.0 0.00 0.00 0.00 30 1010.7
20260507051302 21 268 0.0 0.0 0.00 0.00 0.00 31 1010.7
20260507050802 21 268 0.0 0.0 0.00 0.00 0.00 31 1010.7
20260507050301 21 268 0.0 0.0 0.00 0.00 0.00 30 1010.7
20260507045806 21 268 0.0 0.0 0.00 0.00 0.00 30 1010.7
20260507045306 21 268 0.0 0.0 0.00 0.00 0.00 30 1010.6
20260507045026 21 268 0.0 0.0 0.00 0.00 0.00 30 1010.6
20260507044759 21 268 0.0 0.0 0.00 0.00 0.00 30 1010.6
20260507043804 21 268 0.0 0.0 0.00 0.00 0.00 30 1010.5
20260507043305 21 268 0.0 0.0 0.00 0.00 0.00 30 1010.5
20260507042806 21 268 0.0 0.0 0.00 0.00 0.00 30 1010.4
20260507042307 22 268 0.0 0.0 0.00 0.00 0.00 30 1010.3
20260507041807 22 268 0.0 0.0 0.00 0.00 0.00 30 1010.3
20260507041310 22 268 0.0 0.0 0.00 0.00 0.00 30 1010.2
20260507040804 22 268 0.0 0.0 0.00 0.00 0.00 30 1010.1
20260507040251 22 268 0.0 0.0 0.00 0.00 0.00 30 1010.1
20260507040020 22 268 0.0 0.0 0.00 0.00 0.00 30 1010.0
20260507035230 22 268 0.0 0.0 0.00 0.00 0.00 30 1010.0
20260507034730 23 268 0.0 0.0 0.00 0.00 0.00 30 1009.9
20260507034234 23 268 0.0 0.0 0.00 0.00 0.00 29 1009.8
20260507033730 23 268 0.0 0.0 0.00 0.00 0.00 29 1009.8
20260507033229 23 268 0.0 0.0 0.00 0.00 0.00 29 1009.8
20260507032732 23 268 0.0 0.0 0.00 0.00 0.00 29 1009.7
20260507032236 24 268 0.0 0.0 0.00 0.00 0.00 28 1009.6
20260507031955 24 268 0.0 0.0 0.00 0.00 0.00 28 1009.6
20260507031232 24 268 0.0 0.0 0.00 0.00 0.00 27 1009.6
20260507030729 24 268 0.0 0.0 0.00 0.00 0.00 27 1009.4
20260507030237 25 268 0.0 0.0 0.00 0.00 0.00 26 1009.3
20260507030001 25 268 0.0 0.0 0.00 0.00 0.00 26 1009.3
20260507025229 25 268 0.0 0.0 0.00 0.00 0.00 26 1009.2
20260507024732 25 268 0.0 0.0 0.00 0.00 0.00 25 1009.2
20260507024232 25 268 0.0 0.0 0.00 0.00 0.00 25 1009.1
20260507023731 26 268 0.0 0.0 0.00 0.00 0.00 24 1009.0
20260507023457 26 268 0.0 0.0 0.00 0.00 0.00 24 1009.0
20260507022732 26 268 0.0 0.0 0.00 0.00 0.00 23 1008.9
20260507022233 26 268 0.0 0.0 0.00 0.00 0.00 23 1008.9
20260507021955 26 268 0.0 0.0 0.00 0.00 0.00 23 1008.9
20260507021230 26 268 0.0 1.6 0.00 0.00 0.00 22 1008.9
20260507021000 26 268 0.0 1.6 0.00 0.00 0.00 22 1008.9
20260507020239 27 268 0.0 4.8 0.00 0.00 0.00 21 1008.9
20260507015729 27 268 0.0 6.4 0.00 0.00 0.00 21 1008.8
20260507015233 27 271 1.6 6.4 0.00 0.00 0.00 21 1008.8
20260507014729 27 333 0.0 4.8 0.00 0.00 0.00 21 1008.7
20260507014222 27 251 0.0 8.0 0.00 0.00 0.00 21 1008.8
20260507013724 28 266 1.6 8.0 0.00 0.00 0.00 20 1008.8
20260507013222 28 302 1.6 6.4 0.00 0.00 0.00 20 1008.7
20260507012722 28 267 1.6 6.4 0.00 0.00 0.00 20 1008.7
20260507012207 28 248 1.6 6.4 0.00 0.00 0.00 20 1008.6
20260507011708 28 266 3.2 11.3 0.00 0.00 0.00 20 1008.6
20260507011208 28 234 3.2 11.3 0.00 0.00 0.00 20 1008.6
20260507010708 28 215 1.6 8.0 0.00 0.00 0.00 20 1008.6
20260507010205 28 215 4.8 14.5 0.00 0.00 0.00 19 1008.5
20260507005704 28 214 3.2 14.5 0.00 0.00 0.00 19 1008.6
20260507005204 29 243 3.2 12.9 0.00 0.00 0.00 19 1008.6
20260507004705 29 258 1.6 12.9 0.00 0.00 0.00 19 1008.6
20260507004204 29 237 0.0 9.7 0.00 0.00 0.00 19 1008.6
20260507003702 29 294 1.6 6.4 0.00 0.00 0.00 19 1008.6
20260507003204 29 285 1.6 6.4 0.00 0.00 0.00 19 1008.6
20260507002927 29 238 0.0 3.2 0.00 0.00 0.00 20 1008.5
20260507002206 29 233 1.6 9.7 0.00 0.00 0.00 19 1008.6
20260507001706 29 233 1.6 9.7 0.00 0.00 0.00 19 1008.6
20260507001205 29 224 1.6 6.4 0.00 0.00 0.00 19 1008.6
20260507000647 29 236 1.6 6.4 0.00 0.00 0.00 19 1008.6
20260507000143 29 318 1.6 8.0 0.00 0.00 0.00 19 1008.6
20260506235906 30 303 1.6 9.7 0.00 0.00 0.00 19 1008.6
20260506235136 29 248 3.2 11.3 0.00 0.00 0.00 20 1008.6
20260506234634 29 232 3.2 11.3 0.00 0.00 0.00 19 1008.6
20260506234132 29 249 1.6 11.3 0.00 0.00 0.00 20 1008.7
20260506233630 29 267 3.2 11.3 0.00 0.00 0.00 20 1008.7
20260506233131 29 229 3.2 11.3 0.00 0.00 0.00 19 1008.7
20260506232629 29 207 1.6 11.3 0.00 0.00 0.00 20 1008.7
20260506232129 28 223 0.0 6.4 0.00 0.00 0.00 20 1008.8
20260506231634 28 234 1.6 6.4 0.00 0.00 0.00 19 1008.8
20260506231353 29 331 3.2 8.0 0.00 0.00 0.00 20 1008.9
20260506230900 29 11 1.6 8.0 0.00 0.00 0.00 20 1008.9
20260506230131 30 236 1.6 9.7 0.00 0.00 0.00 20 1008.9
20260506225629 29 239 1.6 9.7 0.00 0.00 0.00 20 1009.0
20260506225129 30 333 1.6 6.4 0.00 0.00 0.00 20 1009.1
20260506224631 30 284 1.6 8.0 0.00 0.00 0.00 20 1009.1
20260506224128 30 219 1.6 8.0 0.00 0.00 0.00 19 1009.2
20260506223900 29 230 1.6 11.3 0.00 0.00 0.00 20 1009.2
20260506223130 29 257 3.2 11.3 0.00 0.00 0.00 20 1009.3
20260506222853 29 253 1.6 6.4 0.00 0.00 0.00 20 1009.5
20260506222839 29 248 1.6 8.0 0.00 0.00 0.00 20 1009.4
20260506221628 29 238 1.6 6.4 0.00 0.00 0.00 20 1009.6
20260506221127 29 259 1.6 12.9 0.00 0.00 0.00 21 1009.6
20260506220631 28 213 3.2 12.9 0.00 0.00 0.00 20 1009.6
20260506220114 28 224 3.2 11.3 0.00 0.00 0.00 20 1009.7
20260506215837 29 232 1.6 8.0 0.00 0.00 0.00 20 1009.8
20260506215116 29 296 1.6 12.9 0.00 0.00 0.00 21 1009.9
20260506214841 29 69 1.6 12.9 0.00 0.00 0.00 21 1010.0
20260506214115 28 336 0.0 6.4 0.00 0.00 0.00 21 1010.0
20260506213615 29 332 1.6 8.0 0.00 0.00 0.00 21 1010.1
20260506213107 28 337 3.2 11.3 0.00 0.00 0.00 21 1010.3
20260506212535 28 332 3.2 11.3 0.00 0.00 0.00 21 1010.3
20260506212030 28 345 3.2 11.3 0.00 0.00 0.00 22 1010.4
20260506211530 28 323 3.2 9.7 0.00 0.00 0.00 21 1010.5
20260506211029 28 315 3.2 11.3 0.00 0.00 0.00 22 1010.5
20260506210757 28 316 3.2 11.3 0.00 0.00 0.00 21 1010.6
20260506210028 27 200 1.6 8.0 0.00 0.00 0.00 21 1010.8
20260506205525 27 238 3.2 9.7 0.00 0.00 0.00 21 1010.9
20260506205235 28 251 1.6 9.7 0.00 0.00 0.00 21 1011.0
20260506204510 27 57 1.6 9.7 0.00 0.00 0.00 21 1011.0
20260506204003 28 30 3.2 11.3 0.00 0.00 0.00 21 1011.1
20260506203504 28 30 4.8 14.5 0.00 0.00 0.00 21 1011.2
20260506203005 28 35 3.2 14.5 0.00 0.00 0.00 22 1011.2
20260506202737 27 290 3.2 8.0 0.00 0.00 0.00 22 1011.2
20260506202006 27 240 1.6 8.0 0.00 0.00 0.00 22 1011.2
20260506201501 28 90 1.6 11.3 0.00 0.00 0.00 21 1011.3
20260506201004 27 32 3.2 11.3 0.00 0.00 0.00 21 1011.4
20260506200735 27 223 3.2 9.7 0.00 0.00 0.00 23 1011.5
20260506200007 27 281 1.6 6.4 0.00 0.00 0.00 22 1011.5
20260506195502 27 18 1.6 6.4 0.00 0.00 0.00 23 1011.6
20260506195002 27 309 1.6 8.0 0.00 0.00 0.00 23 1011.6
20260506194503 26 346 3.2 8.0 0.00 0.00 0.00 22 1011.7
20260506194003 27 271 4.8 11.3 0.00 0.00 0.00 22 1011.8
20260506193501 27 355 4.8 11.3 0.00 0.00 0.00 23 1011.8
20260506193005 27 256 3.2 11.3 0.00 0.00 0.00 23 1011.8
20260506192506 26 136 1.6 9.7 0.00 0.00 0.00 23 1011.8
20260506192001 26 265 1.6 8.0 0.00 0.00 0.00 23 1011.9
20260506191458 26 209 1.6 9.7 0.00 0.00 0.00 23 1012.0
20260506190958 26 302 3.2 9.7 0.00 0.00 0.00 23 1012.0
20260506190434 26 297 3.2 11.3 0.00 0.00 0.00 24 1012.0
20260506185935 26 224 3.2 11.3 0.00 0.00 0.00 23 1012.0
20260506185436 26 325 3.2 8.0 0.00 0.00 0.00 25 1012.1
20260506184931 26 26 3.2 8.0 0.00 0.00 0.00 26 1012.1
20260506184431 26 308 3.2 8.0 0.00 0.00 0.00 25 1012.3
20260506183931 26 224 3.2 8.0 0.00 0.00 0.00 26 1012.3
20260506183434 26 332 3.2 11.3 0.00 0.00 0.00 27 1012.4
20260506182929 26 252 3.2 11.3 0.00 0.00 0.00 27 1012.5
20260506182432 26 202 3.2 9.7 0.00 0.00 0.00 26 1012.5
20260506181931 26 346 3.2 8.0 0.00 0.00 0.00 26 1012.6
20260506181429 26 313 1.6 8.0 0.00 0.00 0.00 27 1012.7
20260506180929 25 221 1.6 6.4 0.00 0.00 0.00 28 1012.7
20260506180433 25 303 1.6 6.4 0.00 0.00 0.00 28 1012.7
20260506180159 25 302 1.6 8.0 0.00 0.00 0.00 29 1012.8
20260506175431 25 341 1.6 8.0 0.00 0.00 0.00 27 1012.8
20260506174930 25 260 1.6 9.7 0.00 0.00 0.00 29 1012.9
20260506174430 25 261 1.6 9.7 0.00 0.00 0.00 29 1012.9
20260506173928 25 241 1.6 9.7 0.00 0.00 0.00 29 1012.9
20260506173428 25 254 1.6 6.4 0.00 0.00 0.00 29 1013.0
20260506173201 23 34 1.6 8.0 0.00 0.00 0.00 31 1013.0
20260506172431 23 22 1.6 8.0 0.00 0.00 0.00 30 1013.0
20260506171922 24 327 1.6 8.0 0.00 0.00 0.00 31 1013.0
20260506171643 23 246 1.6 6.4 0.00 0.00 0.00 30 1012.9
20260506170919 23 266 0.0 4.8 0.00 0.00 0.00 31 1012.9
20260506170410 23 236 0.0 4.8 0.00 0.00 0.00 31 1012.9
20260506165913 23 243 1.6 8.0 0.00 0.00 0.00 31 1013.0
20260506165406 22 243 1.6 8.0 0.00 0.00 0.00 32 1013.0
20260506164909 22 355 1.6 8.0 0.00 0.00 0.00 31 1013.0
20260506164643 22 198 3.2 11.3 0.00 0.00 0.00 32 1012.8
20260506164405 22 253 1.6 4.8 0.00 0.00 0.00 31 1012.9
20260506163401 22 202 3.2 11.3 0.00 0.00 0.00 32 1012.8
20260506162904 23 232 1.6 9.7 0.00 0.00 0.00 30 1012.8
20260506162402 23 168 1.6 4.8 0.00 0.00 0.00 31 1012.8
20260506161907 23 219 1.6 6.4 0.00 0.00 0.00 31 1012.7
20260506161401 23 211 1.6 9.7 0.00 0.00 0.00 31 1012.7
20260506160903 23 162 1.6 9.7 0.00 0.00 0.00 31 1012.7
20260506160401 23 160 0.0 8.0 0.00 0.00 0.00 31 1012.6